Regional Weather Roundup
Issued by NWS

Home | Current Version | Previous Version | Graphics & Text | Print | Product List | Glossary Off
Versions: 1 2 3 4 5 6 7 8 9 10 11 12 13 14 15 16 17 18 19 20 21 22 23 24 25 26 27 28 29 30 31 32 33 34 35 36 37 38 39 40 41 42 43 44 45 46 47 48 49 50

000
ASUS43 KMKX 250510
RWRWI

WISCONSIN REGIONAL WEATHER ROUNDUP
NATIONAL WEATHER SERVICE MILWAUKEE/SULLIVAN WI
1200 AM CDT WED APR 25 2018

NOTE: "FAIR" INDICATES FEW OR NO CLOUDS BELOW 12,000 FEET WITH NO
SIGNIFICANT WEATHER AND/OR OBSTRUCTIONS TO VISIBILITY.

WIZ001-002-006>008-014>016-023>028-250600-
NORTHWEST WISCONSIN

CITY           SKY/WX    TMP DP  RH WIND       PRES   REMARKS
SUPERIOR ARPT  FAIR      36  24  60 N3        30.29S
ASHLAND        FAIR      35  26  69 N8        30.27S WCI  29
HAYWARD        FAIR      38  26  62 N7        30.24R WCI  33
SIREN          FAIR      41  25  51 NE9G17    30.26R
CUMBERLAND     FAIR      39  27  60 N7        30.23R WCI  34
RICE LAKE      FAIR      41  28  60 NW7       30.23R
CHETEK         FAIR      32  31  96 CALM      30.21S
LADYSMITH      FAIR      33  31  91 N10       30.22R WCI  25
EAU CLAIRE     FAIR      37  34  89 N3        30.19S
MENOMONIE      FAIR      41  34  77 N3        30.21R
NEW RICHMOND   FAIR      41  26  56 N5        30.23R
OSCEOLA        FAIR      43  28  54 N5        30.26S
$$

WIZ003>005-009-010-017-018-250600-
NORTH CENTRAL WISCONSIN

CITY           SKY/WX    TMP DP  RH WIND       PRES   REMARKS
MANITOWISH WTR FAIR      33  33 100 N6        30.19R WCI  27
ARBOR VITAE    FAIR      32  31  96 N7        30.18R WCI  25
WOODRUFF       FAIR      32  31  96 N7        30.18R WCI  25
RHINELANDER    FAIR      34  34 100 CALM      30.17F FOG
EAGLE RIVER    FOG       30  30 100 N3        30.16F VSB 1
LAND O LAKES   FAIR      36  34  95 N7        30.19S WCI  30
PHILLIPS       FAIR      35  32  87 N5        30.19R WCI  31
TOMAHAWK       FOG       28  27  97 CALM      30.18S VSB 3/4
MEDFORD        FAIR      35  34  94 N3        30.17S
MERRILL        FAIR      36  36 100 CALM      30.18S
$$

WIZ029-030-035-036-043>047-250600-
CENTRAL WISCONSIN

CITY           SKY/WX    TMP DP  RH WIND       PRES   REMARKS
WAUSAU         FAIR      40  38  93 N7        30.14S
MOSINEE        CLOUDY    41  37  87 N8        30.16S
MARSHFIELD     FAIR      41  36  82 N9        30.15S
STEVENS POINT  CLOUDY    41  39  95 N7        30.16S
WAUPACA        CLOUDY    48  33  56 N6        30.15S
WAUTOMA        CLOUDY    48  32  53 N8        30.15R
WISC RAPIDS    MOCLDY    45  35  68 NE7       30.16S
CAMP DOUGLAS   NOT AVBL
$$

WIZ011>013-019>022-031-037>040-048>050-250600-
NORTHEAST WISCONSIN

CITY           SKY/WX    TMP DP  RH WIND       PRES   REMARKS
ANTIGO         FAIR      34  34 100 N6        30.15F WCI  29
SHAWANO        CLOUDY    44  37  76 NE7       30.15S
OCONTO         CLOUDY    43  38  82 N6        30.15S
STURGEON BAY   LGT RAIN  41  35  79 N21G26    30.15R
GREEN BAY      CLOUDY    43  32  65 N8        30.14S
MANITOWOC      MOCLDY    44  31  60 N9        30.13S
APPLETON       CLOUDY    45  28  53 NE9       30.12S
CLINTONVILLE   CLOUDY    46  34  63 N7        30.14F
OSHKOSH        CLOUDY    47  33  58 NE12      30.13R
$$

WIZ032>034-041-042-053>061-250600-
SOUTHWEST WISCONSIN

CITY           SKY/WX    TMP DP  RH WIND       PRES   REMARKS
LA CROSSE      MOCLDY    51  35  54 N8        30.18S
SPARTA         CLOUDY    47  37  68 N7        30.18S
VIROQUA        FAIR      46  37  71 N9        30.15S
BOSCOBEL       FAIR      54  34  46 N10G18    30.14R
PRAIRIE DU CHI MOCLDY    54  32  43 N6        30.13R
PLATTEVILLE    CLOUDY    55  36  47 N22G30    30.08R
$$

WIZ056-057-062-063-064-067-068-250600-
SOUTH CENTRAL WISCONSIN

CITY           SKY/WX    TMP DP  RH WIND       PRES   REMARKS
REEDSBURG      CLOUDY    51  32  49 N17       30.12S
BARABOO/DELLS  CLOUDY    51  30  43 NE9G18    30.13R
LONE ROCK      CLOUDY    54  33  45 N13G22    30.12R
MINERAL POINT  FAIR      54  32  43 N21G26    30.09R
MADISON        CLOUDY    51  33  50 NE14      30.09R
MIDDLETON      CLOUDY    53  35  51 NE12      30.10R
WATERTOWN      MOCLDY    47  32  55 NE13      30.09S
MONROE         CLOUDY    55  34  44 E5        30.05R
JANESVILLE     CLOUDY    52  45  76 NE15      30.07R
$$

WIZ051-052-058>065-066-070>072-250600-
SOUTHEAST WISCONSIN

CITY           SKY/WX    TMP DP  RH WIND       PRES   REMARKS
MILWAUKEE      FAIR      43  33  68 N23G30    30.07S
WAUKESHA       FAIR      45  28  53 NE13G28   30.10R
MILWAUKEE/TIMM FAIR      46  25  42 NE23G33   30.09R
RACINE         FAIR      42  34  73 N20G33    30.08R
BURLINGTON     FAIR      46  31  56 NE13G23   30.08R
KENOSHA        MOCLDY    45  33  63 N15G26    30.07R
FOND DU LAC    CLOUDY    47  32  56 NE13      30.13R
SHEBOYGAN      MOCLDY    45  32  60 N14G22    30.11R
WEST BEND      MOCLDY    45  30  57 NE15G32   30.10R
JUNEAU         CLOUDY    47  32  56 NE7       30.12R
$$

LSZ147-162-250600-
LAKE SUPERIOR

STATION/POSITION TIME  TEMP    WIND        PRES    WAVE
                       AIR SEA DIR/SP/G            HT/PER
                 (UTC) (F)     (DEG/KT/KT) (MB)    (FT/S)
DEVILS ISLAND    0500   37      20/  8/  9 1026.3R
SAXON HARBOR     0440   34      CALM  /  2 1024.4R
$$

LMZ867-665-643>646-250600-
LAKE MICHIGAN

STATION/POSITION TIME  TEMP    WIND        PRES    WAVE
                       AIR SEA DIR/SP/G            HT/PER
                 (UTC) (F)     (DEG/KT/KT) (MB)    (FT/S)
NORTHPORT PIER   0440   37                 1020.3F
KEWAUNEE LAKESHO 0448   45     360/  9/ 14 1019.7R
SHEBOYGAN LAKESH 0500   41      10/ 20/ 22 1020.2R
PORT WASHINGTON  0502   47      20/ 18/ 26 1020.3
MILWAUKEE LAKESH 0430   42      10/ 22/ 26   N/A
KENOSHA   LAKESH 0500   43                 1017.6
$$

TC  - TEMPERATURE IN CELSIUS
VSB - VISIBILITY IN STATUTE MILES
WCI - WIND CHILL INDEX
HX  - HEAT INDEX





USA.gov is the U.S. government's official web portal to all federal, state and local government web resources and services.